Stations météo

réclame
Mon MeteoGroup
Antwerpen, Belgique (6450): Température de l'air & dewpoint: 17.09.2017 23:00:00 - 23.09.2017 23:00:00 (CEST)Antwerpen, Belgique (6450): Vitesse du vent & gusts: 17.09.2017 23:00:00 - 23.09.2017 23:00:00 (CEST)Antwerpen, Belgique (6450): Direction du vent: 17.09.2017 23:00:00 - 23.09.2017 23:00:00 (CEST)Antwerpen, Belgique (6450): reduced air pressure: 17.09.2017 23:00:00 - 23.09.2017 23:00:00 (CEST)Antwerpen, Belgique (6450): visibility: 17.09.2017 23:00:00 - 23.09.2017 23:00:00 (CEST)
Date & Time tt [°C] td [°C] ff [km/h] ff [knt] fx [km/h] fx [knt] dd ppp [hPa] vv [km]
23.09.2017 23:00:00 9,2 6,9 2 1 - - E 1023,3 10
23.09.2017 22:00:00 10,4 7,9 4 2 4 2 ENE 1023,4 10
23.09.2017 21:00:00 12,5 8,5 4 2 7 4 SE 1023,1 10
23.09.2017 20:00:00 14,1 8,7 8 4 - - ESE 1023,0 10
23.09.2017 19:00:00 15,8 8,7 8 4 14 8 E 1022,9 10
23.09.2017 18:00:00 17,2 9,0 9 5 18 10 E 1022,9 10
23.09.2017 17:00:00 18,0 9,5 9 5 - - ESE 1023,0 10
23.09.2017 16:00:00 17,8 9,1 5 3 22 12 E 1023,8 10
23.09.2017 15:00:00 17,5 10,6 11 6 18 10 E 1024,3 10
23.09.2017 14:00:00 16,5 10,0 8 4 - - SE 1024,6 10
23.09.2017 13:00:00 14,9 10,9 11 6 18 10 ESE 1025,0 10
23.09.2017 12:00:00 14,2 11,2 9 5 14 8 SE 1025,1 10
23.09.2017 11:00:00 13,1 11,1 8 4 - - ESE 1025,4 10
23.09.2017 10:00:00 9,0 8,2 4 2 7 4 - 1024,9 0,4
23.09.2017 09:00:00 6,8 6,2 2 1 4 2 - 1025,0 0,2
23.09.2017 08:00:00 5,7 5,7 2 1 - - - 1024,8 0,2
23.09.2017 07:00:00 5,4 5,0 4 2 4 2 E 1024,6 0,2
23.09.2017 06:00:00 6,3 5,4 2 1 4 2 ESE 1024,4 0,3
23.09.2017 05:00:00 5,5 4,9 4 2 - - - 1024,5 0,3
23.09.2017 04:00:00 6,1 5,7 4 2 4 2 SSE 1024,4 0,2
23.09.2017 03:00:00 6,7 5,7 0 0 4 2 N 1024,4 0,5
23.09.2017 02:00:00 7,4 6,7 2 1 - - W 1024,3 4,7
23.09.2017 01:00:00 7,7 6,7 2 1 4 2 SW 1023,9 2,0
23.09.2017 00:00:00 8,6 7,4 2 1 4 2 - 1023,9 1,6
22.09.2017 23:00:00 10,7 9,1 0 0 - - N 1023,8 10
22.09.2017 22:00:00 13,5 10,3 4 2 14 8 N 1023,5 10
22.09.2017 21:00:00 14,5 10,5 9 5 14 8 N 1023,2 10
22.09.2017 20:00:00 15,3 11,2 9 5 - - N 1022,5 10
22.09.2017 19:00:00 16,7 10,8 13 7 25 14 NNW 1021,9 10
22.09.2017 18:00:00 17,7 11,6 16 9 25 14 NW 1021,5 10
22.09.2017 17:00:00 17,9 12,4 16 9 - - NW 1021,2 10
22.09.2017 16:00:00 18,0 12,8 13 7 18 10 W 1021,1 10
22.09.2017 15:00:00 18,3 12,6 9 5 18 10 WSW 1021,0 10
22.09.2017 14:00:00 17,7 12,5 9 5 - - WSW 1021,0 10
22.09.2017 13:00:00 16,2 12,6 9 5 18 10 WSW 1021,0 10
22.09.2017 12:00:00 16,6 12,3 8 4 11 6 - 1020,9 10
22.09.2017 11:00:00 15,1 12,0 5 3 - - S 1020,7 10
22.09.2017 10:00:00 14,2 11,4 4 2 7 4 - 1020,5 9
22.09.2017 09:00:00 10,6 9,4 4 2 4 2 S 1020,1 9
22.09.2017 08:00:00 9,2 8,0 2 1 - - - 1019,8 9
22.09.2017 07:00:00 8,7 7,7 4 2 4 2 S 1019,4 6
22.09.2017 06:00:00 7,9 6,9 2 1 4 2 ESE 1019,3 5
22.09.2017 05:00:00 8,2 7,2 4 2 - - E 1019,3 1,0
22.09.2017 04:00:00 8,4 7,7 2 1 4 2 E 1019,4 0,6
22.09.2017 03:00:00 9,9 8,9 4 2 4 2 E 1019,5 5
22.09.2017 02:00:00 10,0 8,7 4 2 - - ESE 1019,6 7
22.09.2017 01:00:00 10,6 9,3 2 1 4 2 E 1019,4 8
22.09.2017 00:00:00 10,4 9,2 2 1 4 2 SE 1019,4 10
21.09.2017 23:00:00 11,6 10,0 4 2 - - E 1019,5 10
21.09.2017 22:00:00 11,9 9,9 4 2 4 2 SE 1019,4 10
21.09.2017 21:00:00 15,1 10,3 4 2 7 4 - 1019,3 10
21.09.2017 20:00:00 15,2 10,5 5 3 - - SE 1018,7 10
21.09.2017 19:00:00 17,3 10,5 9 5 18 10 SE 1018,3 10
21.09.2017 18:00:00 18,2 10,8 13 7 22 12 SSE 1018,3 10
21.09.2017 17:00:00 19,3 8,9 13 7 - - SSE 1018,4 10
21.09.2017 16:00:00 19,4 8,9 8 4 29 16 S 1018,6 10
21.09.2017 15:00:00 19,0 8,0 13 7 - - S - 10
21.09.2017 14:00:00 19,0 9,0 11 6 - - S - 10
21.09.2017 13:00:00 18,0 9,0 16 9 - - S - 10
21.09.2017 12:00:00 17,0 9,0 13 7 - - S - 10
21.09.2017 11:00:00 14,7 8,3 11 6 - - S 1020,5 10
21.09.2017 10:00:00 13,0 8,6 9 5 14 8 S 1020,3 10
21.09.2017 09:00:00 10,7 8,0 8 4 11 6 SSE 1020,2 10
21.09.2017 08:00:00 7,9 6,6 8 4 - - SE 1020,1 10
21.09.2017 07:00:00 7,4 6,0 5 3 7 4 SE 1020,0 10
21.09.2017 06:00:00 7,4 6,2 5 3 7 4 SE 1020,0 10
21.09.2017 05:00:00 8,2 6,9 4 2 - - SSE 1020,1 10
21.09.2017 04:00:00 9,0 7,5 5 3 7 4 S 1020,3 10
21.09.2017 03:00:00 10,7 8,7 5 3 11 6 SSE 1020,4 10
21.09.2017 02:00:00 13,6 9,5 5 3 - - SSE 1020,6 10
21.09.2017 01:00:00 14,1 9,7 8 4 18 10 S 1020,6 10
21.09.2017 00:00:00 14,5 9,8 9 5 18 10 SSW 1020,6 10
20.09.2017 23:00:00 14,5 9,9 9 5 - - SSW 1020,5 10
20.09.2017 22:00:00 14,7 10,1 5 3 11 6 SSW 1020,5 10
20.09.2017 21:00:00 15,0 9,7 5 3 11 6 SSW 1020,5 10
20.09.2017 20:00:00 15,6 9,4 8 4 - - SSW 1020,2 10
20.09.2017 19:00:00 16,6 9,2 11 6 29 16 SW 1020,1 10
20.09.2017 18:00:00 17,0 9,6 11 6 25 14 SW 1020,2 10
20.09.2017 17:00:00 18,3 9,5 13 7 - - SSW 1020,3 10
20.09.2017 16:00:00 17,8 8,1 16 9 25 14 WSW 1020,5 10
20.09.2017 15:00:00 16,9 8,3 8 4 22 12 W 1020,7 10
20.09.2017 14:00:00 16,6 9,3 13 7 - - W 1021,2 10
20.09.2017 13:00:00 15,8 9,5 13 7 22 12 W 1021,4 10
20.09.2017 12:00:00 15,0 9,7 11 6 18 10 SW 1021,5 10
20.09.2017 11:00:00 13,6 9,7 13 7 - - SW 1021,5 10
20.09.2017 10:00:00 11,9 8,6 13 7 25 14 SW 1021,4 10
20.09.2017 09:00:00 10,6 8,7 11 6 18 10 SW 1021,4 8
20.09.2017 08:00:00 9,8 8,3 9 5 - - SW 1021,3 7
20.09.2017 07:00:00 10,0 8,5 8 4 14 8 SSW 1021,1 6
20.09.2017 06:00:00 10,6 9,0 9 5 14 8 SW 1021,2 8
20.09.2017 05:00:00 11,1 9,6 9 5 - - WSW 1021,2 7
20.09.2017 04:00:00 11,5 10,1 11 6 18 10 WSW 1021,3 6
20.09.2017 03:00:00 12,1 10,6 8 4 11 6 SW 1021,5 10
20.09.2017 02:00:00 12,6 11,2 5 3 - - SSW 1021,6 10
20.09.2017 01:00:00 12,9 11,2 4 2 11 6 - 1021,6 10
20.09.2017 00:00:00 13,3 11,6 9 5 14 8 SSW 1021,9 10
19.09.2017 23:00:00 13,6 11,3 5 3 - - W 1021,9 10
19.09.2017 22:00:00 14,0 11,2 2 1 7 4 - 1021,6 10
19.09.2017 21:00:00 14,3 9,3 2 1 11 6 NW 1021,2 10
19.09.2017 20:00:00 15,2 10,0 8 4 - - N 1020,8 10
19.09.2017 19:00:00 15,9 9,5 11 6 22 12 NNW 1020,2 10
19.09.2017 18:00:00 16,5 8,7 13 7 22 12 NW 1019,8 10
19.09.2017 17:00:00 16,2 10,0 9 5 - - N 1019,7 10
19.09.2017 16:00:00 17,1 8,5 9 5 22 12 N 1019,5 10
19.09.2017 15:00:00 17,3 8,0 11 6 22 12 N 1019,6 10
19.09.2017 14:00:00 17,1 8,8 9 5 - - NE 1019,4 10
19.09.2017 13:00:00 15,9 9,5 9 5 22 12 NNW 1019,5 10
19.09.2017 12:00:00 15,0 10,4 9 5 14 8 N 1019,1 10
19.09.2017 11:00:00 13,1 10,6 8 4 - - NNE 1018,7 10
19.09.2017 10:00:00 12,8 10,7 5 3 14 8 WNW 1017,9 10
19.09.2017 09:00:00 11,5 9,8 8 4 14 8 W 1017,1 10
19.09.2017 08:00:00 10,8 9,3 11 6 - - WNW 1016,9 10
19.09.2017 07:00:00 10,9 9,4 11 6 22 12 W 1016,4 10
19.09.2017 06:00:00 11,1 9,8 15 8 22 12 W 1016,1 10
19.09.2017 05:00:00 10,9 9,6 13 7 - - W 1016,0 10
19.09.2017 04:00:00 11,1 9,8 13 7 22 12 WSW 1016,0 10
19.09.2017 03:00:00 10,9 9,6 11 6 14 8 W 1016,0 10
19.09.2017 02:00:00 11,5 9,9 11 6 - - W 1015,8 10
19.09.2017 01:00:00 11,4 10,1 11 6 18 10 WSW 1015,9 10
19.09.2017 00:00:00 11,6 10,2 13 7 22 12 WSW 1015,8 10
18.09.2017 23:00:00 12,0 10,3 15 8 - - W 1015,7 10
18.09.2017 22:00:00 12,2 10,8 13 7 22 12 WSW 1015,6 10
18.09.2017 21:00:00 12,6 10,9 13 7 18 10 WSW 1015,6 10
18.09.2017 20:00:00 12,4 10,7 13 7 - - WSW 1015,1 10
18.09.2017 19:00:00 13,7 9,7 15 8 29 16 W 1014,7 10
18.09.2017 18:00:00 14,6 10,2 16 9 29 16 W 1014,3 10
18.09.2017 17:00:00 15,2 10,3 18 10 - - W 1014,2 10
18.09.2017 16:00:00 14,4 10,4 15 8 25 14 WNW 1014,2 10
18.09.2017 15:00:00 14,2 11,2 8 4 29 16 SW 1014,0 4,0
18.09.2017 14:00:00 15,0 12,0 16 9 - - SSW - 10
18.09.2017 13:00:00 11,6 8,4 28 15 43 23 W 1014,4 2,7
18.09.2017 12:00:00 15,6 9,7 18 10 29 16 WSW 1014,0 10
18.09.2017 11:00:00 14,1 9,9 13 7 - - SW 1014,2 10
18.09.2017 10:00:00 12,6 9,5 15 8 22 12 SW 1014,0 10
18.09.2017 09:00:00 10,7 9,0 11 6 18 10 SW 1013,9 10
18.09.2017 08:00:00 10,0 8,5 11 6 - - SW 1013,7 7
18.09.2017 07:00:00 9,6 8,3 11 6 18 10 SW 1013,5 6
18.09.2017 06:00:00 9,6 8,2 8 4 14 8 SW 1013,4 6
18.09.2017 05:00:00 9,6 8,1 8 4 - - SW 1013,4 9
18.09.2017 04:00:00 9,8 7,9 9 5 14 8 SW 1013,5 10
18.09.2017 03:00:00 10,2 7,8 11 6 14 8 SW 1013,6 10
18.09.2017 02:00:00 11,0 8,4 9 5 - - SW 1013,6 10
18.09.2017 01:00:00 11,7 8,7 8 4 18 10 SW 1013,7 10
18.09.2017 00:00:00 12,5 9,4 13 7 18 10 SW 1014,1 10
17.09.2017 23:00:00 10,4 8,7 9 5 - - SSE 1013,8 10

tt = Température de l'air
td = dewpoint
ff = Vitesse du vent
fx = gusts
dd = Direction du vent
ppp = reduced air pressure
vv = visibility

stations d'obs. à proximité